Regional Weather Roundup
Issued by NWS

Home | Current Version | Previous Version | Graphics & Text | Print | Product List | Glossary On
Versions: 1 2 3 4 5 6 7 8 9 10 11 12 13 14 15 16 17 18 19 20 21 22 23 24 25 26 27 28 29 30 31 32 33 34 35 36 37 38 39 40 41 42 43 44 45 46 47 48 49 50
000
ASUS43 KLMK 230610
RWRKY
NATIONAL WEATHER SERVICE LOUISVILLE KY
100 AM EST SUN NOV 23 2014

NOTE "FAIR" INDICATES FEW OR NO CLOUDS BELOW 12,000 FEET
WITH NO SIGNIFICANT WEATHER AND/OR OBSTRUCTIONS TO VISIBILITY.

KYZ001>023-026-027-061>063-070>075-230700-
WESTERN AND SOUTH CENTRAL KENTUCKY

CITY           SKY/WX    TMP DP  RH WIND       PRES   REMARKS
PADUCAH        CLEAR     52  40  63 S7        29.95F
HENDERSON      PTCLDY    52  36  54 SE3       29.99S
OWENSBORO      PTCLDY    52  40  63 MISG      30.01F
HOPKINSVILLE   PTCLDY    55  41  58 S12       30.00F
BOWLING GREEN  CLEAR     55  37  50 S7        30.05F
GLASGOW        PTCLDY    52  34  49 S8        30.06F
$$

KYZ024-025-028>034-038-045-046-053-230700-
NORTH CENTRAL KENTUCKY

CITY           SKY/WX    TMP DP  RH WIND       PRES   REMARKS
LOUISVILLE/SDF MOCLDY    48  34  58 SE7       30.04F
LOUISVILLE/LOU PTCLDY    48  33  56 CALM      30.05F
FORT KNOX      CLOUDY    50  36  58 SE8       30.03F
$$

KYZ035>037-039>044-047>052-055>060-089>105-230700-
NORTHEAST KENTUCKY

CITY           SKY/WX    TMP DP  RH WIND       PRES   REMARKS
LEXINGTON      MOCLDY    49  36  61 S9        30.08F
COVINGTON      CLOUDY    52  32  46 S12       30.05F
FRANKFORT      CLOUDY    47  33  58 CALM      30.06F
$$

KYZ054-064>069-076>088-106>120-230700-
SOUTHEAST KENTUCKY

CITY           SKY/WX    TMP DP  RH WIND       PRES   REMARKS
JACKSON        CLOUDY    50  29  44 S3        30.12F
LONDON         MOCLDY    48  32  53 SE3       30.12F
SOMERSET       CLOUDY    52  34  50 S3        30.12F
MIDDLESBORO    MOCLDY    34  32  91 CALM      30.16F
MONTICELLO     MOCLDY    52  37  56 CALM      30.13F
$$



USA.gov is the U.S. government's official web portal to all federal, state and local government web resources and services.